Location: Caltech
(34.1382°N, 118.1253°W)
Time: 21:36:37
(UTC-07:00)

FENGYUN 3A - Visible Passes

Search period start: 28 July 2014 00:00
Search period end: 07 August 2014 00:00
Orbit: 819 x 834 km, 98.6° (Epoch: 28 July)

Date Brightness Start Highest point End Pass type
(mag) Time Alt. Az. Time Alt. Az. Time Alt. Az.
28 Jul 5.4 20:29:25 10° E 20:32:28 16° ENE 20:35:30 10° NNE visible
28 Jul 4.0 22:10:03 35° SSW 22:12:10 58° W 22:17:27 10° NNW visible
29 Jul 3.6 21:51:10 36° SSE 21:53:27 88° WSW 21:58:50 10° NNW visible
30 Jul 3.7 21:32:17 31° SE 21:34:47 61° ENE 21:40:04 10° N visible
30 Jul 6.0 23:13:48 12° WSW 23:15:21 13° W 23:17:55 10° WNW visible
31 Jul 4.2 21:13:25 23° SE 21:16:10 40° ENE 21:21:08 10° N visible
31 Jul 5.5 22:54:55 19° WSW 22:56:29 21° W 23:00:29 10° NW visible
01 Aug 4.8 20:54:32 16° ESE 20:57:37 27° ENE 21:02:01 10° NNE visible
01 Aug 5.0 22:36:03 27° SW 22:37:40 32° W 22:42:26 10° NW visible
02 Aug 5.2 20:35:40 10° ESE 20:39:06 18° ENE 20:42:37 10° NNE visible
02 Aug 4.3 22:17:11 36° SSW 22:18:54 49° W 22:24:05 10° NNW visible
03 Aug 5.6 20:18:46 10° E 20:20:39 12° ENE 20:22:31 10° NE visible
03 Aug 3.7 21:58:18 42° S 22:00:10 76° WSW 22:05:32 10° NNW visible
04 Aug 3.6 21:39:26 38° SSE 21:41:29 72° ENE 21:46:49 10° N visible
04 Aug 6.2 23:20:57 10° WSW 23:22:09 11° W 23:23:36 10° WNW visible
05 Aug 4.0 21:20:34 29° SE 21:22:51 47° ENE 21:27:57 10° N visible
05 Aug 5.7 23:02:05 17° WSW 23:03:16 18° W 23:06:49 10° NW visible
06 Aug 4.5 21:01:43 21° ESE 21:04:16 31° ENE 21:08:55 10° N visible
06 Aug 5.2 22:43:13 25° WSW 22:44:26 27° W 22:48:56 10° NW visible
